Location: Waning Moon II Observatory
(30.3730°N, 89.7620°W)
Time: 19:28:46
(UTC-05:00)

Cosmos 1825 Rocket - Visible Passes

Search period start: 02 August 2015 00:00
Search period end: 12 August 2015 00:00
Orbit: 604 x 633 km, 82.5° (Epoch: 02 August)

Date Brightness Start Highest point End Pass type
(mag) Time Alt. Az. Time Alt. Az. Time Alt. Az.
02 Aug 6.5 23:12:42 10° NNE 23:12:44 10° NNE 23:12:44 10° NNE visible
03 Aug 6.5 23:29:25 10° N 23:29:45 12° N 23:29:45 12° N visible
04 Aug 6.7 23:46:32 10° NNW 23:46:48 12° NNW 23:46:48 12° NNW visible
06 Aug 6.2 22:43:20 10° NNE 22:43:47 12° NNE 22:43:47 12° NNE visible
07 Aug 6.2 23:00:04 10° N 23:00:52 15° N 23:00:52 15° N visible
08 Aug 6.4 23:17:12 10° NNW 23:17:58 15° NNW 23:17:58 15° NNW visible
09 Aug 6.1 21:57:47 10° NE 21:57:56 11° NE 21:57:56 11° NE visible
09 Aug 6.7 23:34:46 10° NNW 23:35:05 12° NW 23:35:05 12° NW visible
10 Aug 5.8 22:13:57 10° NNE 22:15:04 16° NNE 22:15:04 16° NNE visible
11 Aug 5.7 22:30:42 10° N 22:32:13 21° N 22:32:13 21° N visible
